TimeEST,TemperatureF,Dew PointF,Humidity,Sea Level PressureIn,VisibilityMPH,Wind Direction,Wind SpeedMPH,Gust SpeedMPH,PrecipitationIn,Events,Conditions,WindDirDegrees,DateUTC
1:54 AM,33.1,30.0,89,30.24,4.0,Calm,Calm,-,N/A,,Clear,0,2012-12-04 06:54:00
2:54 AM,33.1,30.9,92,30.24,5.0,SSE,3.5,-,N/A,,Mostly Cloudy,150,2012-12-04 07:54:00
3:54 AM,35.1,34.0,96,30.22,6.0,Calm,Calm,-,N/A,,Overcast,0,2012-12-04 08:54:00
4:54 AM,37.0,35.1,93,30.22,7.0,Calm,Calm,-,N/A,,Overcast,0,2012-12-04 09:54:00
5:54 AM,39.0,36.0,89,30.22,8.0,Calm,Calm,-,0.00,Rain,Light Rain,0,2012-12-04 10:54:00
6:54 AM,43.0,39.9,89,30.21,10.0,Variable,3.5,-,0.00,,Overcast,0,2012-12-04 11:54:00
7:54 AM,50.0,43.0,77,30.21,10.0,SSW,10.4,16.1,N/A,,Overcast,200,2012-12-04 12:54:00
8:05 AM,48.2,42.8,82,30.19,10.0,North,5.8,-,N/A,,Overcast,350,2012-12-04 13:05:00
8:27 AM,48.2,42.8,82,30.19,9.0,NW,4.6,-,0.00,,Overcast,320,2012-12-04 13:27:00
8:54 AM,50.0,43.0,77,30.20,9.0,NNW,4.6,-,0.00,,Overcast,330,2012-12-04 13:54:00
9:54 AM,53.1,45.0,74,30.20,10.0,Calm,Calm,-,N/A,,Partly Cloudy,0,2012-12-04 14:54:00
10:25 AM,53.6,46.4,77,30.18,10.0,SW,8.1,-,N/A,,Mostly Cloudy,230,2012-12-04 15:25:00
10:54 AM,55.0,48.0,77,30.18,10.0,South,5.8,-,N/A,,Mostly Cloudy,190,2012-12-04 15:54:00
11:54 AM,55.0,48.0,77,30.15,10.0,SW,4.6,-,N/A,,Mostly Cloudy,220,2012-12-04 16:54:00
1:01 PM,57.2,50.0,77,30.11,10.0,SW,6.9,-,N/A,,Scattered Clouds,230,2012-12-04 18:01:00
1:54 PM,59.0,50.0,72,30.08,10.0,Variable,3.5,-,N/A,,Partly Cloudy,0,2012-12-04 18:54:00
2:54 PM,57.9,50.0,75,30.07,10.0,SSW,9.2,-,N/A,,Clear,210,2012-12-04 19:54:00
3:54 PM,57.0,50.0,77,30.07,10.0,Variable,4.6,-,N/A,,Clear,0,2012-12-04 20:54:00
4:54 PM,55.9,50.0,80,30.05,10.0,Calm,Calm,-,N/A,,Clear,0,2012-12-04 21:54:00
5:54 PM,55.9,50.0,80,30.02,10.0,South,8.1,-,N/A,,Clear,180,2012-12-04 22:54:00
6:54 PM,54.0,48.9,83,30.00,8.0,Calm,Calm,-,N/A,,Clear,0,2012-12-04 23:54:00
7:54 PM,57.0,50.0,77,29.99,10.0,Calm,Calm,-,N/A,,Partly Cloudy,0,2012-12-05 00:54:00
8:54 PM,57.9,50.0,75,29.95,10.0,Calm,Calm,-,N/A,,Mostly Cloudy,0,2012-12-05 01:54:00
9:54 PM,59.0,50.0,72,29.92,10.0,Variable,6.9,19.6,N/A,,Overcast,0,2012-12-05 02:54:00
10:54 PM,60.1,50.0,69,29.88,10.0,South,11.5,25.3,0.00,Rain,Light Rain,180,2012-12-05 03:54:00
11:54 PM,61.0,50.0,67,29.85,10.0,South,16.1,29.9,0.01,,Overcast,190,2012-12-05 04:54:00